Powrót do katalogu

STARLINK-11226

AktywnyŁącznośćVLEO
NORAD 60907·PAYLOAD·🇺🇸 United States

Wystrzelony Aug 31, 2024 z Cape Canaveral Space Force Station

Loading…

Następne Przeloty (najbliższe 24 godziny)

TLE

ŚwieżeSource: CelesTrak SupGP

Epoka: Sep 14, 2026, 22:36 UTC

1 60907C 24154E   26257.94215278  .00033746  00000+0  27799-3 0  2574
2 60907  53.1571 278.5115 0001267  89.1535 355.7229 15.69691329    17

Śledź STARLINK-11226 w czasie rzeczywistym z AllMySat

Download on the App Store